Home > Time Zones > World Clock > Weather > Ghana > Accra > Past weeks

Flag for Ghana Weather past 2 weeks in Accra, Ghana

Now
75 °F

Mostly cloudy.


Feels Like: 74 °F
Forecast: 76 / 82 °F
Wind: 6 mph from West

Location: Accra Airport

Current Time: Sep 19, 2014 at 4:51:37 AM

Latest Report: Sep 19, 2014 at 3:56 AM


Visibility: N/A

Pressure: 29.92 "Hg

Humidity: 94%

Dew point: 73 °F

Location of AccraLocation

Historic Weather in Accra — Graph

°F

Accra temperature yesterday

Maximum temperature yesterday: 79 °F (at 11:00 AM)
Minimum temperature yesterday: 75 °F (at 1:00 AM)
Average temperature yesterday: 77 °F

Past Weeks' High & Low Weather Summary

 TemperatureHumidityPressure
High84 °F (Sep 9, 1:00 PM)100% (Sep 12, 7:55 AM)30.04 "Hg (Sep 12, 7:55 AM)
Low70 °F (Sep 12, 7:55 AM)66% (Sep 10, 2:00 PM)29.83 "Hg (Sep 4, 5:00 PM)
Average78 °F86%29.92 "Hg
* Reported Sep 4 2:00 AM — Sep 19 2:46 AM, Accra, Weather by CustomWeather, © 2014

Note: Actual official high and low records may vary slightly from our data, if they occured in-between our weather recording intervals... More about our weather records

Advertising

Accra weather history for previous 24 hours

 ConditionsComfort  
Time TempWeatherWind HumidityBarometerVisibility
2:46 AM
Sep 19
75 °FMostly cloudy.8 mph94%29.89 "HgN/A
1:00 AM75 °FPartly cloudy.9 mph94%29.92 "HgN/A
12:00 AM75 °FPassing clouds.8 mph94%29.92 "HgN/A
11:00 PM
Sep 18
75 °FPassing clouds.8 mph94%29.95 "HgN/A
9:51 PM75 °FPassing clouds.8 mph94%29.95 "HgN/A
8:47 PM75 °FPassing clouds.7 mph94%29.95 "HgN/A
7:48 PM75 °FPassing clouds.9 mph94%29.92 "HgN/A
6:50 PM77 °FPassing clouds.9 mph89%29.89 "HgN/A
5:45 PM75 °FPartly sunny.17 mph94%29.89 "HgN/A
3:55 PM79 °FMostly cloudy.14 mph84%29.89 "HgN/A
3:00 PM79 °FCloudy.16 mph84%29.89 "HgN/A
1:52 PM79 °FBroken clouds.10 mph84%29.89 "HgN/A
12:51 PM79 °FMostly cloudy.18 mph84%29.92 "HgN/A
11:50 AM79 °FBroken clouds.15 mph89%29.95 "HgN/A
11:00 AM79 °FPartly sunny.15 mph89%29.95 "HgN/A
10:01 AM77 °FDrizzle. More clouds than sun.12 mph94%29.98 "Hg5 mi
9:00 AM77 °FMostly cloudy.9 mph89%29.98 "HgN/A
7:00 AM75 °FMostly cloudy.7 mph94%29.92 "HgN/A
5:00 AM75 °FMostly cloudy.8 mph100%29.92 "HgN/A
4:00 AM75 °FMostly cloudy.8 mph94%29.92 "Hg5 mi
Weather by CustomWeather, © 2014

See weather overviewHow to use our weather pages